Year,Month,Day,Hour,Minute,Value (Times are PST for temperature in C)
2016,02,22,10,58,6.30
2016,02,22,10,59,6.30
2016,02,22,11,00,6.40
2016,02,22,11,01,6.40
2016,02,22,11,02,6.50
2016,02,22,11,03,6.50
2016,02,22,11,04,6.60
2016,02,22,11,05,6.60
2016,02,22,11,06,6.70
2016,02,22,11,07,6.80
2016,02,22,11,08,6.80
2016,02,22,11,09,6.80
2016,02,22,11,10,6.90
2016,02,22,11,11,6.90
2016,02,22,11,12,7.00
2016,02,22,11,13,7.10
2016,02,22,11,14,7.10
2016,02,22,11,15,7.20
2016,02,22,11,16,7.20
2016,02,22,11,17,7.20
2016,02,22,11,18,7.20
2016,02,22,11,19,7.20
2016,02,22,11,20,7.20
2016,02,22,11,21,7.20
2016,02,22,11,22,7.30
2016,02,22,11,23,7.30
2016,02,22,11,24,7.30
2016,02,22,11,25,7.30
2016,02,22,11,26,7.30
2016,02,22,11,27,7.30
2016,02,22,11,28,7.30
2016,02,22,11,29,7.30
2016,02,22,11,30,7.30
2016,02,22,11,31,7.30
2016,02,22,11,32,7.30
2016,02,22,11,33,7.30
2016,02,22,11,34,7.30
2016,02,22,11,35,7.20
2016,02,22,11,36,7.20
2016,02,22,11,37,7.20
2016,02,22,11,38,7.20
2016,02,22,11,39,7.20
2016,02,22,11,40,7.20
2016,02,22,11,41,7.30
2016,02,22,11,42,7.30
2016,02,22,11,43,7.40
2016,02,22,11,44,7.50
2016,02,22,11,45,7.50
2016,02,22,11,46,7.60
2016,02,22,11,47,7.70
2016,02,22,11,48,7.90
2016,02,22,11,49,7.90
2016,02,22,11,50,7.90
2016,02,22,11,51,7.90
2016,02,22,11,52,7.90
2016,02,22,11,53,8.00
2016,02,22,11,54,8.00
2016,02,22,11,55,8.10
2016,02,22,11,56,8.10
2016,02,22,11,57,8.30
2016,02,22,11,58,8.30
2016,02,22,11,59,8.40
2016,02,22,12,00,8.50
2016,02,22,12,01,8.60
2016,02,22,12,02,8.70
2016,02,22,12,03,8.70
2016,02,22,12,04,8.80
2016,02,22,12,05,8.80
2016,02,22,12,06,8.90
2016,02,22,12,07,8.90
2016,02,22,12,08,8.90
2016,02,22,12,09,8.90
2016,02,22,12,10,8.90
2016,02,22,12,11,8.90
2016,02,22,12,12,8.90
2016,02,22,12,13,8.90
2016,02,22,12,14,8.90
2016,02,22,12,15,8.90
2016,02,22,12,16,8.90
2016,02,22,12,17,8.90
2016,02,22,12,18,8.80
2016,02,22,12,19,8.80
2016,02,22,12,20,8.80
2016,02,22,12,21,8.70
2016,02,22,12,22,8.70
2016,02,22,12,23,8.70
2016,02,22,12,24,8.70
2016,02,22,12,25,8.70
2016,02,22,12,26,8.70
2016,02,22,12,27,8.70
2016,02,22,12,28,8.60
2016,02,22,12,29,8.60
2016,02,22,12,30,8.60
2016,02,22,12,31,8.60
2016,02,22,12,32,8.50
2016,02,22,12,33,8.50
2016,02,22,12,34,8.40
2016,02,22,12,35,8.40
2016,02,22,12,36,8.40
2016,02,22,12,37,8.40
2016,02,22,12,38,8.40
2016,02,22,12,39,8.30
2016,02,22,12,40,8.30
2016,02,22,12,41,8.30
2016,02,22,12,42,8.30
2016,02,22,12,43,8.30
2016,02,22,12,44,8.20
2016,02,22,12,45,8.20
2016,02,22,12,46,8.20
2016,02,22,12,47,8.10
2016,02,22,12,48,8.10
2016,02,22,12,49,8.10
2016,02,22,12,50,8.00
2016,02,22,12,51,8.00
2016,02,22,12,52,7.90
2016,02,22,12,53,7.90
2016,02,22,12,54,7.80
2016,02,22,12,55,7.80
2016,02,22,12,56,7.80
2016,02,22,12,57,7.80
2016,02,22,12,58,7.80
2016,02,22,12,59,7.80
2016,02,22,13,00,7.70
2016,02,22,13,01,7.70
2016,02,22,13,02,7.70
2016,02,22,13,03,7.60
2016,02,22,13,04,7.60
2016,02,22,13,05,7.50
2016,02,22,13,06,7.40
2016,02,22,13,07,7.40
2016,02,22,13,08,7.40
2016,02,22,13,09,7.40
2016,02,22,13,10,7.30
2016,02,22,13,11,7.30
2016,02,22,13,12,7.30
2016,02,22,13,13,7.30
2016,02,22,13,14,7.20
2016,02,22,13,15,7.20
2016,02,22,13,16,7.20
2016,02,22,13,17,7.20
2016,02,22,13,18,7.10
2016,02,22,13,19,7.10
2016,02,22,13,20,7.10
2016,02,22,13,21,7.10
2016,02,22,13,22,7.10
2016,02,22,13,23,7.10
2016,02,22,13,24,7.10
2016,02,22,13,25,7.10
2016,02,22,13,26,7.10
2016,02,22,13,27,7.10
2016,02,22,13,28,7.10
2016,02,22,13,29,7.10
2016,02,22,13,30,7.10
2016,02,22,13,31,7.10
2016,02,22,13,32,7.10
2016,02,22,13,33,7.10
2016,02,22,13,34,7.10
2016,02,22,13,35,7.10
2016,02,22,13,36,7.10
2016,02,22,13,37,7.10
2016,02,22,13,38,7.10
2016,02,22,13,39,7.10
2016,02,22,13,40,7.10
2016,02,22,13,41,7.10
2016,02,22,13,42,7.20
2016,02,22,13,43,7.20
2016,02,22,13,44,7.20
2016,02,22,13,45,7.20
2016,02,22,13,46,7.30
2016,02,22,13,47,7.30
2016,02,22,13,48,7.30
2016,02,22,13,49,7.30
2016,02,22,13,50,7.30
2016,02,22,13,51,7.30
2016,02,22,13,52,7.30
2016,02,22,13,53,7.40
2016,02,22,13,54,7.40
2016,02,22,13,55,7.50
2016,02,22,13,56,7.50
2016,02,22,13,57,7.50
2016,02,22,13,58,7.50
2016,02,22,13,59,7.50
2016,02,22,14,00,7.50
2016,02,22,14,01,7.50
2016,02,22,14,02,7.50
2016,02,22,14,03,7.50
2016,02,22,14,04,7.50
2016,02,22,14,05,7.50
2016,02,22,14,39,7.20
2016,02,22,14,40,7.30
2016,02,22,14,41,7.30
2016,02,22,14,42,7.40
2016,02,22,14,43,7.40
2016,02,22,14,44,7.40
2016,02,22,14,45,7.40
2016,02,22,14,46,7.40
2016,02,22,14,47,7.40
2016,02,22,14,48,7.40
2016,02,22,14,49,7.50
2016,02,22,14,50,8.40
2016,02,22,14,51,8.50
2016,02,22,14,52,8.70
2016,02,22,14,53,8.80
2016,02,22,14,54,8.80
2016,02,22,14,55,8.90
2016,02,22,14,56,8.90
2016,02,22,14,57,9.00
2016,02,22,14,58,9.00
2016,02,22,14,59,9.10
2016,02,22,15,00,9.10
2016,02,22,15,01,9.10
2016,02,22,15,02,9.20
2016,02,22,15,03,9.20
2016,02,22,15,04,9.30
2016,02,22,15,05,9.40
2016,02,22,15,06,9.50
2016,02,22,15,07,9.60
2016,02,22,15,08,9.60
2016,02,22,15,09,9.70
2016,02,22,15,10,9.70
2016,02,22,15,11,9.70
2016,02,22,15,12,9.70
2016,02,22,15,13,9.80
2016,02,22,15,14,9.80
2016,02,22,15,15,9.80
2016,02,22,15,16,9.80
2016,02,22,15,17,9.80
2016,02,22,15,18,9.80
2016,02,22,15,19,9.80
2016,02,22,15,20,9.80
2016,02,22,15,21,9.90
2016,02,22,15,22,9.90
2016,02,22,15,23,9.90
2016,02,22,15,24,9.90
2016,02,22,15,25,9.90
2016,02,22,15,26,9.90
2016,02,22,15,27,9.90
2016,02,22,15,28,9.90
2016,02,22,15,29,9.90
2016,02,22,15,30,9.90
2016,02,22,15,31,9.90
2016,02,22,15,32,9.90
2016,02,22,15,33,9.90
2016,02,22,15,34,9.90
2016,02,22,15,35,9.90
2016,02,22,15,36,9.90
2016,02,22,15,37,9.90
2016,02,22,15,38,9.80
2016,02,22,15,39,9.80
2016,02,22,15,40,9.80
2016,02,22,15,41,9.70
2016,02,22,15,42,9.70
2016,02,22,15,43,9.70
2016,02,22,15,44,9.60
2016,02,22,15,45,9.60
2016,02,22,15,46,9.60
2016,02,22,15,47,9.60
2016,02,22,15,48,9.60
2016,02,22,15,49,9.60
2016,02,22,15,50,9.60
2016,02,22,15,51,9.70
2016,02,22,15,52,9.70
2016,02,22,15,53,9.70
2016,02,22,15,54,9.70
2016,02,22,15,55,9.70
2016,02,22,15,56,9.50
2016,02,22,15,57,9.50
2016,02,22,15,58,9.50
2016,02,22,15,59,9.50
2016,02,22,16,00,9.40
2016,02,22,16,01,9.40
2016,02,22,16,02,9.40
2016,02,22,16,03,9.30
2016,02,22,16,04,9.20
2016,02,22,16,05,9.20
2016,02,22,16,06,9.20
2016,02,22,16,07,9.20
2016,02,22,16,08,9.10
2016,02,22,16,09,9.10
2016,02,22,16,10,9.00
2016,02,22,16,11,9.00
2016,02,22,16,12,8.90
2016,02,22,16,13,8.80
2016,02,22,16,14,8.80
2016,02,22,16,15,8.70
2016,02,22,16,16,8.60
2016,02,22,16,17,8.50
2016,02,22,16,18,8.40
2016,02,22,16,19,8.40
2016,02,22,16,20,8.30
2016,02,22,16,21,8.30
2016,02,22,16,22,8.30
2016,02,22,16,23,8.30
2016,02,22,16,24,8.30
2016,02,22,16,25,8.40
2016,02,22,16,26,8.40
2016,02,22,16,27,8.40
2016,02,22,16,28,8.40
2016,02,22,16,29,8.40
2016,02,22,16,30,8.40
2016,02,22,16,31,8.40
2016,02,22,16,32,8.40
2016,02,22,16,33,8.40
2016,02,22,16,34,8.50
2016,02,22,16,35,8.50
2016,02,22,16,36,8.50
2016,02,22,16,37,8.60
2016,02,22,16,38,8.60
2016,02,22,16,39,8.60
2016,02,22,16,40,8.60
2016,02,22,16,41,8.70
2016,02,22,16,42,8.70
2016,02,22,16,43,8.70
2016,02,22,16,44,8.70
2016,02,22,16,45,8.80
2016,02,22,16,46,8.80
2016,02,22,16,47,8.80
2016,02,22,16,48,8.70
2016,02,22,16,49,8.70
2016,02,22,16,50,8.60
2016,02,22,16,51,8.50
2016,02,22,16,52,8.40
2016,02,22,16,53,8.30
2016,02,22,16,54,8.30
2016,02,22,16,55,8.20
2016,02,22,16,56,8.20
2016,02,22,16,57,8.10
2016,02,22,16,58,8.10
2016,02,22,16,59,8.10
2016,02,22,17,00,8.00
2016,02,22,17,01,8.00
2016,02,22,17,02,7.90
2016,02,22,17,03,7.90
2016,02,22,17,04,7.90
2016,02,22,17,05,7.80
2016,02,22,17,06,7.80
2016,02,22,17,07,7.80
2016,02,22,17,08,7.70
2016,02,22,17,09,7.70
2016,02,22,17,10,7.60
2016,02,22,17,11,7.60
2016,02,22,17,12,7.50
2016,02,22,17,13,7.50
2016,02,22,17,14,7.40
2016,02,22,17,15,7.40
2016,02,22,17,16,7.40
2016,02,22,17,17,7.30
2016,02,22,17,18,7.30
2016,02,22,17,19,7.30
2016,02,22,17,20,7.30
2016,02,22,17,21,7.20
2016,02,22,17,22,7.20
2016,02,22,17,23,7.20
2016,02,22,17,24,7.20
2016,02,22,17,25,7.10
2016,02,22,17,26,7.10
2016,02,22,17,27,7.10
2016,02,22,17,28,7.00
2016,02,22,17,29,7.00
2016,02,22,17,30,7.00
2016,02,22,17,31,7.00
2016,02,22,17,32,7.00
2016,02,22,17,33,7.00
2016,02,22,17,34,7.00
2016,02,22,17,35,7.00
2016,02,22,17,36,7.00
2016,02,22,17,37,7.00
2016,02,22,17,38,7.00
2016,02,22,17,39,7.00
